Year,Month,Day,Hour,Minute,Value (Times are PST for temperature in C)
2006,06,25,00,00,15.20
2006,06,25,00,01,15.20
2006,06,25,00,02,15.20
2006,06,25,00,03,15.20
2006,06,25,00,04,15.20
2006,06,25,00,05,15.20
2006,06,25,00,06,15.10
2006,06,25,00,07,15.10
2006,06,25,00,08,15.10
2006,06,25,00,09,15.10
2006,06,25,00,10,15.10
2006,06,25,00,11,15.10
2006,06,25,00,12,15.00
2006,06,25,00,13,15.00
2006,06,25,00,14,15.00
2006,06,25,00,15,15.00
2006,06,25,00,16,15.00
2006,06,25,00,17,15.00
2006,06,25,00,18,14.90
2006,06,25,00,19,14.90
2006,06,25,00,20,14.90
2006,06,25,00,21,14.90
2006,06,25,00,22,14.90
2006,06,25,00,23,14.80
2006,06,25,00,24,14.80
2006,06,25,00,25,14.80
2006,06,25,00,26,14.80
2006,06,25,00,27,14.80
2006,06,25,00,28,14.80
2006,06,25,00,29,14.80
2006,06,25,00,30,14.90
2006,06,25,00,31,14.90
2006,06,25,00,32,14.90
2006,06,25,00,33,14.90
2006,06,25,00,34,14.90
2006,06,25,00,35,14.90
2006,06,25,00,36,14.90
2006,06,25,00,37,14.90
2006,06,25,00,38,14.90
2006,06,25,00,39,14.90
2006,06,25,00,40,15.00
2006,06,25,00,41,15.00
2006,06,25,00,42,15.00
2006,06,25,00,43,15.00
2006,06,25,00,44,15.00
2006,06,25,00,45,15.00
2006,06,25,00,46,15.00
2006,06,25,00,47,15.00
2006,06,25,00,48,15.00
2006,06,25,00,49,15.00
2006,06,25,00,50,15.00
2006,06,25,00,51,15.00
2006,06,25,00,52,15.00
2006,06,25,00,53,15.00
2006,06,25,00,54,15.00
2006,06,25,00,55,15.00
2006,06,25,00,56,15.00
2006,06,25,00,57,15.00
2006,06,25,00,58,15.00
2006,06,25,00,59,15.00
2006,06,25,01,00,15.00
2006,06,25,01,01,15.00
2006,06,25,01,02,15.00
2006,06,25,01,03,15.00
2006,06,25,01,04,15.00
2006,06,25,01,05,15.00
2006,06,25,01,06,15.00
2006,06,25,01,07,15.10
2006,06,25,01,08,15.10
2006,06,25,01,09,15.10
2006,06,25,01,10,15.10
2006,06,25,01,11,15.10
2006,06,25,01,12,15.10
2006,06,25,01,13,15.10
2006,06,25,01,14,15.10
2006,06,25,01,15,15.10
2006,06,25,01,16,15.10
2006,06,25,01,17,15.10
2006,06,25,01,18,15.10
2006,06,25,01,19,15.10
2006,06,25,01,20,15.10
2006,06,25,01,21,15.10
2006,06,25,01,22,15.10
2006,06,25,01,23,15.10
2006,06,25,01,24,15.10
2006,06,25,01,25,15.10
2006,06,25,01,26,15.10
2006,06,25,01,27,15.10
2006,06,25,01,28,15.10
2006,06,25,01,29,15.00
2006,06,25,01,30,15.00
2006,06,25,01,31,15.00
2006,06,25,01,32,15.00
2006,06,25,01,33,15.00
2006,06,25,01,34,15.00
2006,06,25,01,35,15.00
2006,06,25,01,36,15.00
2006,06,25,01,37,15.00
2006,06,25,01,38,15.00
2006,06,25,01,39,15.00
2006,06,25,01,40,14.90
2006,06,25,01,41,14.90
2006,06,25,01,42,14.90
2006,06,25,01,43,14.90
2006,06,25,01,44,14.90
2006,06,25,01,45,14.90
2006,06,25,01,46,14.90
2006,06,25,01,47,14.90
2006,06,25,01,48,14.90
2006,06,25,01,49,14.90
2006,06,25,01,50,14.90
2006,06,25,01,51,14.90
2006,06,25,01,52,14.90
2006,06,25,01,53,14.90
2006,06,25,01,54,14.90
2006,06,25,01,55,14.90
2006,06,25,01,56,14.90
2006,06,25,01,57,14.90
2006,06,25,01,58,14.80
2006,06,25,01,59,14.80
2006,06,25,02,00,14.80
2006,06,25,02,01,14.80
2006,06,25,02,02,14.80
2006,06,25,02,03,14.80
2006,06,25,02,04,14.80
2006,06,25,02,05,14.80
2006,06,25,02,06,14.80
2006,06,25,02,07,14.80
2006,06,25,02,08,14.80
2006,06,25,02,09,14.70
2006,06,25,02,10,14.70
2006,06,25,02,11,14.70
2006,06,25,02,12,14.70
2006,06,25,02,13,14.60
2006,06,25,02,14,14.60
2006,06,25,02,15,14.60
2006,06,25,02,16,14.60
2006,06,25,02,17,14.60
2006,06,25,02,18,14.60
2006,06,25,02,19,14.60
2006,06,25,02,20,14.60
2006,06,25,02,21,14.60
2006,06,25,02,22,14.50
2006,06,25,02,23,14.50
2006,06,25,02,24,14.50
2006,06,25,02,25,14.50
2006,06,25,02,26,14.50
2006,06,25,02,27,14.50
2006,06,25,02,28,14.40
2006,06,25,02,29,14.40
2006,06,25,02,30,14.40
2006,06,25,02,31,14.40
2006,06,25,02,32,14.40
2006,06,25,02,33,14.40
2006,06,25,02,34,14.40
2006,06,25,02,35,14.40
2006,06,25,02,36,14.40
2006,06,25,02,37,14.50
2006,06,25,02,38,14.50
2006,06,25,02,39,14.50
2006,06,25,02,40,14.50
2006,06,25,02,41,14.50
2006,06,25,02,42,14.50
2006,06,25,02,43,14.50
2006,06,25,02,44,14.50
2006,06,25,02,45,14.60
2006,06,25,02,46,14.60
2006,06,25,02,47,14.60
2006,06,25,02,48,14.60
2006,06,25,02,49,14.50
2006,06,25,02,50,14.50
2006,06,25,02,51,14.50
2006,06,25,02,52,14.50
2006,06,25,02,53,14.50
2006,06,25,02,54,14.40
2006,06,25,02,55,14.40
2006,06,25,02,56,14.40
2006,06,25,02,57,14.30
2006,06,25,02,58,14.30
2006,06,25,02,59,14.20
2006,06,25,03,00,14.20
2006,06,25,03,01,14.10
2006,06,25,03,02,14.00
2006,06,25,03,03,13.90
2006,06,25,03,04,13.90
2006,06,25,03,05,13.80
2006,06,25,03,06,13.70
2006,06,25,03,07,13.70
2006,06,25,03,08,13.60
2006,06,25,03,09,13.60
2006,06,25,03,10,13.50
2006,06,25,03,11,13.40
2006,06,25,03,12,13.30
2006,06,25,03,13,13.10
2006,06,25,03,14,12.90
2006,06,25,03,15,12.80
2006,06,25,03,16,12.60
2006,06,25,03,17,12.40
2006,06,25,03,18,12.30
2006,06,25,03,19,12.20
2006,06,25,03,20,12.10
2006,06,25,03,21,12.10
2006,06,25,03,22,12.10
2006,06,25,03,23,12.00
2006,06,25,03,24,12.00
2006,06,25,03,25,12.00
2006,06,25,03,26,11.90
2006,06,25,03,27,11.90
2006,06,25,03,28,11.80
2006,06,25,03,29,11.80
2006,06,25,03,30,11.70
2006,06,25,03,31,11.60
2006,06,25,03,32,11.60
2006,06,25,03,33,11.60
2006,06,25,03,34,11.60
2006,06,25,03,35,11.60
2006,06,25,03,36,11.60
2006,06,25,03,37,11.60
2006,06,25,03,38,11.60
2006,06,25,03,39,11.60
2006,06,25,03,40,11.60
2006,06,25,03,41,11.60
2006,06,25,03,42,11.60
2006,06,25,03,43,11.40
2006,06,25,03,44,11.40
2006,06,25,03,45,11.40
2006,06,25,03,46,11.40
2006,06,25,03,47,11.40
2006,06,25,03,48,11.40
2006,06,25,03,49,11.40
2006,06,25,03,50,11.40
2006,06,25,03,51,11.40
2006,06,25,03,52,11.40
2006,06,25,03,53,11.40
2006,06,25,03,54,11.50
2006,06,25,03,55,11.60
2006,06,25,03,56,11.60
2006,06,25,03,57,11.60
2006,06,25,03,58,11.70
2006,06,25,03,59,11.70
2006,06,25,04,00,11.70
2006,06,25,04,01,11.70
2006,06,25,04,02,11.70
2006,06,25,04,03,11.70
2006,06,25,04,04,11.70
2006,06,25,04,05,11.70
2006,06,25,04,06,11.70
2006,06,25,04,07,11.80
2006,06,25,04,08,11.80
2006,06,25,04,09,11.80
2006,06,25,04,10,11.80
2006,06,25,04,11,11.80
2006,06,25,04,12,11.90
2006,06,25,04,13,11.90
2006,06,25,04,14,12.00
2006,06,25,04,15,12.00
2006,06,25,04,16,12.10
2006,06,25,04,17,12.20
2006,06,25,04,18,12.20
2006,06,25,04,19,12.30
2006,06,25,04,20,12.30
2006,06,25,04,21,12.40
2006,06,25,04,22,12.50
2006,06,25,04,23,12.50
2006,06,25,04,24,12.60
2006,06,25,04,25,12.70
2006,06,25,04,26,12.70
2006,06,25,04,27,12.80
2006,06,25,04,28,12.80
2006,06,25,04,29,12.80
2006,06,25,04,30,12.80
2006,06,25,04,31,12.90
2006,06,25,04,32,12.90
2006,06,25,04,33,12.90
2006,06,25,04,34,13.00
2006,06,25,04,35,13.00
2006,06,25,04,36,13.00
2006,06,25,04,37,13.10
2006,06,25,04,38,13.10
2006,06,25,04,39,13.20
2006,06,25,04,40,13.20
2006,06,25,04,41,13.30
2006,06,25,04,42,13.40
2006,06,25,04,43,13.50
2006,06,25,04,44,13.60
2006,06,25,04,45,13.70
2006,06,25,04,46,13.70
2006,06,25,04,47,13.70
2006,06,25,04,48,13.80
2006,06,25,04,49,13.90
2006,06,25,04,50,13.90
2006,06,25,04,51,14.00
2006,06,25,04,52,14.00
2006,06,25,04,53,14.10
2006,06,25,04,54,14.10
2006,06,25,04,55,14.20
2006,06,25,04,56,14.20
2006,06,25,04,57,14.20
2006,06,25,04,58,14.20
2006,06,25,04,59,14.30
2006,06,25,05,00,14.30
2006,06,25,05,01,14.30
2006,06,25,05,02,14.30
2006,06,25,05,03,14.30
2006,06,25,05,04,14.30
2006,06,25,05,05,14.30
2006,06,25,05,06,14.20
2006,06,25,05,07,14.30
2006,06,25,05,08,14.30
2006,06,25,05,09,14.20
2006,06,25,05,10,14.20
2006,06,25,05,11,14.20
2006,06,25,05,12,14.20
2006,06,25,05,13,14.20
2006,06,25,05,14,14.20
2006,06,25,05,15,14.20
2006,06,25,05,16,14.10
2006,06,25,05,17,14.10
2006,06,25,05,18,14.10
2006,06,25,05,19,14.00
2006,06,25,05,20,14.00
2006,06,25,05,21,14.00
2006,06,25,05,22,13.90
2006,06,25,05,23,13.90
2006,06,25,05,24,13.90
2006,06,25,05,25,13.90
2006,06,25,05,26,13.90
2006,06,25,05,27,13.90
2006,06,25,05,28,13.90
2006,06,25,05,29,13.80
2006,06,25,05,30,13.80
2006,06,25,05,31,13.70
2006,06,25,05,32,13.70
2006,06,25,05,33,13.70
2006,06,25,05,34,13.70
2006,06,25,05,35,13.70
2006,06,25,05,36,13.70
2006,06,25,05,37,13.70
2006,06,25,05,38,13.70
2006,06,25,05,39,13.60
2006,06,25,05,40,13.60
2006,06,25,05,41,13.60
2006,06,25,05,42,13.60
2006,06,25,05,43,13.60
2006,06,25,05,44,13.60
2006,06,25,05,45,13.60
2006,06,25,05,46,13.60
2006,06,25,05,47,13.60
2006,06,25,05,48,13.60
2006,06,25,05,49,13.60
2006,06,25,05,50,13.70
2006,06,25,05,51,13.70
2006,06,25,05,52,13.70
2006,06,25,05,53,13.70
2006,06,25,05,54,13.70
2006,06,25,05,55,13.80
2006,06,25,05,56,13.80
2006,06,25,05,57,13.80
2006,06,25,05,58,13.80
2006,06,25,05,59,13.90
2006,06,25,06,00,13.90
2006,06,25,06,01,13.90
2006,06,25,06,02,13.90
2006,06,25,06,03,13.90
2006,06,25,06,04,14.00
2006,06,25,06,05,14.00
2006,06,25,06,06,14.00
2006,06,25,06,07,14.00
2006,06,25,06,08,14.00
2006,06,25,06,09,14.00
2006,06,25,06,10,14.00
2006,06,25,06,11,14.00
2006,06,25,06,12,14.10
2006,06,25,06,13,14.10
2006,06,25,06,14,14.10
2006,06,25,06,15,14.20
2006,06,25,06,16,14.20
2006,06,25,06,17,14.20
2006,06,25,06,18,14.20
2006,06,25,06,19,14.30
2006,06,25,06,20,14.30
2006,06,25,06,21,14.40
2006,06,25,06,22,14.40
2006,06,25,06,23,14.40
2006,06,25,06,24,14.50
2006,06,25,06,25,14.50
2006,06,25,06,26,14.50
2006,06,25,06,27,14.60
2006,06,25,06,28,14.60
2006,06,25,06,29,14.60
2006,06,25,06,30,14.70
2006,06,25,06,31,14.70
2006,06,25,06,32,14.70
2006,06,25,06,33,14.80
2006,06,25,06,34,14.80
2006,06,25,06,35,14.80
2006,06,25,06,36,14.90
2006,06,25,06,37,14.90
2006,06,25,06,38,15.00
2006,06,25,06,39,15.00
2006,06,25,06,40,15.10
2006,06,25,06,41,15.10
2006,06,25,06,42,15.20
2006,06,25,06,43,15.30
2006,06,25,06,44,15.30
2006,06,25,06,45,15.40
2006,06,25,06,46,15.40
2006,06,25,06,47,15.40
2006,06,25,06,48,15.40
2006,06,25,06,49,15.40
2006,06,25,06,50,15.40
2006,06,25,06,51,15.30
2006,06,25,06,52,15.30
2006,06,25,06,53,15.30
2006,06,25,06,54,15.40
2006,06,25,06,55,15.40
2006,06,25,06,56,15.40
2006,06,25,06,57,15.50
2006,06,25,06,58,15.50
2006,06,25,06,59,15.60
2006,06,25,07,00,15.60
2006,06,25,07,01,15.70
2006,06,25,07,02,15.80
2006,06,25,07,03,15.80
2006,06,25,07,04,15.90
2006,06,25,07,05,16.10
2006,06,25,07,06,16.10
2006,06,25,07,07,16.20
2006,06,25,07,08,16.30
2006,06,25,07,09,16.50
2006,06,25,07,10,16.60
2006,06,25,07,11,16.70
2006,06,25,07,12,16.90
2006,06,25,07,13,17.00
2006,06,25,07,14,17.10
2006,06,25,07,15,17.20
2006,06,25,07,16,17.30
2006,06,25,07,17,17.50
2006,06,25,07,18,17.70
2006,06,25,07,19,17.90
2006,06,25,07,20,18.10
2006,06,25,07,21,18.30
2006,06,25,07,22,18.40
2006,06,25,07,23,18.60
2006,06,25,07,24,18.70
2006,06,25,07,25,18.90
2006,06,25,07,26,19.10
2006,06,25,07,27,19.10
2006,06,25,07,28,19.20
2006,06,25,07,29,19.30
2006,06,25,07,30,19.40
2006,06,25,07,31,19.50
2006,06,25,07,32,19.50
2006,06,25,07,33,19.60
2006,06,25,07,34,19.60
2006,06,25,07,35,19.70
2006,06,25,07,36,19.70
2006,06,25,07,37,19.70
2006,06,25,07,38,19.80
2006,06,25,07,39,19.80
2006,06,25,07,40,19.80
2006,06,25,07,41,19.80
2006,06,25,07,42,19.90
2006,06,25,07,43,19.90
2006,06,25,07,44,19.90
2006,06,25,07,45,20.00
2006,06,25,07,46,20.10
2006,06,25,07,47,20.10
2006,06,25,07,48,20.10
2006,06,25,07,49,20.20
2006,06,25,07,50,20.20
2006,06,25,07,51,20.20
2006,06,25,07,52,20.20
2006,06,25,07,53,20.20
2006,06,25,07,54,20.30
2006,06,25,07,55,20.30
2006,06,25,07,56,20.30
2006,06,25,07,57,20.40
2006,06,25,07,58,20.40
2006,06,25,07,59,20.40
2006,06,25,08,00,20.40
2006,06,25,08,01,20.40
2006,06,25,08,02,20.40
2006,06,25,08,03,20.30
2006,06,25,08,04,20.30
2006,06,25,08,05,20.30
2006,06,25,08,06,20.30
2006,06,25,08,07,20.30
2006,06,25,08,08,20.30
2006,06,25,08,09,20.30
2006,06,25,08,10,20.30
2006,06,25,08,11,20.40
2006,06,25,08,12,20.40
2006,06,25,08,13,20.50
2006,06,25,08,14,20.50
2006,06,25,08,15,20.50
2006,06,25,08,16,20.50
2006,06,25,08,17,20.60
2006,06,25,08,18,20.60
2006,06,25,08,19,20.60
2006,06,25,08,20,20.60
2006,06,25,08,21,20.70
2006,06,25,08,22,20.70
2006,06,25,08,23,20.80
2006,06,25,08,24,20.90
2006,06,25,08,25,20.90
2006,06,25,08,26,21.00
2006,06,25,08,27,21.00
2006,06,25,08,28,21.00
2006,06,25,08,29,21.10
2006,06,25,08,30,21.20
2006,06,25,08,31,21.30
2006,06,25,08,32,21.30
2006,06,25,08,33,21.30
2006,06,25,08,34,21.30
2006,06,25,08,35,21.30
2006,06,25,08,36,21.30
2006,06,25,08,37,21.30
2006,06,25,08,38,21.30
2006,06,25,08,39,21.30
2006,06,25,08,40,21.30
2006,06,25,08,41,21.30
2006,06,25,08,42,21.30
2006,06,25,08,43,21.30
2006,06,25,08,44,21.30
2006,06,25,08,45,21.30
2006,06,25,08,46,21.20
2006,06,25,08,47,21.20
2006,06,25,08,48,21.20
2006,06,25,08,49,21.20
2006,06,25,08,50,21.20
2006,06,25,08,51,21.20
2006,06,25,08,52,21.20
2006,06,25,08,53,21.20
2006,06,25,08,54,21.10
2006,06,25,08,55,21.10
2006,06,25,08,56,21.10
2006,06,25,08,57,21.20
2006,06,25,08,58,21.20
2006,06,25,08,59,21.30
2006,06,25,09,00,21.30
2006,06,25,09,01,21.30
2006,06,25,09,02,21.30
2006,06,25,09,03,21.30
2006,06,25,09,04,21.40
2006,06,25,09,05,21.40
2006,06,25,09,06,21.50
2006,06,25,09,07,21.60
2006,06,25,09,08,21.60
2006,06,25,09,09,21.70
2006,06,25,09,10,21.80
2006,06,25,09,11,21.80
2006,06,25,09,12,21.80
2006,06,25,09,13,21.80
2006,06,25,09,14,21.90
2006,06,25,09,15,21.90
2006,06,25,09,16,21.90
2006,06,25,09,17,21.90
2006,06,25,09,18,22.00
2006,06,25,09,19,22.00
2006,06,25,09,20,22.00
2006,06,25,09,21,22.00
2006,06,25,09,22,22.10
2006,06,25,09,23,22.00
2006,06,25,09,24,22.00
2006,06,25,09,25,22.00
2006,06,25,09,26,21.90
2006,06,25,09,27,21.80
2006,06,25,09,28,21.70
2006,06,25,09,29,21.70
2006,06,25,09,30,21.60
2006,06,25,09,31,21.60
2006,06,25,09,32,21.60
2006,06,25,09,33,21.60
2006,06,25,09,34,21.50
2006,06,25,09,35,21.40
2006,06,25,09,36,21.40
2006,06,25,09,37,21.40
2006,06,25,09,38,21.40
2006,06,25,09,39,21.40
2006,06,25,09,40,21.40
2006,06,25,09,41,21.30
2006,06,25,09,42,21.30
2006,06,25,09,43,21.30
2006,06,25,09,44,21.20
2006,06,25,09,45,21.30
2006,06,25,09,46,21.30
2006,06,25,09,47,21.30
2006,06,25,09,48,21.30
2006,06,25,09,49,21.30
2006,06,25,09,50,21.30
2006,06,25,09,51,21.20
2006,06,25,09,52,21.20
2006,06,25,09,53,21.30
2006,06,25,09,54,21.30
2006,06,25,09,55,21.30
2006,06,25,09,56,21.30
2006,06,25,09,57,21.30
2006,06,25,09,58,21.30
2006,06,25,09,59,21.30
2006,06,25,10,00,21.30
2006,06,25,10,01,21.30
2006,06,25,10,02,21.30
2006,06,25,10,03,21.30
2006,06,25,10,04,21.40
2006,06,25,10,05,21.40
2006,06,25,10,06,21.60
2006,06,25,10,07,21.60
2006,06,25,10,08,21.60
2006,06,25,10,09,21.70
2006,06,25,10,10,21.80
2006,06,25,10,11,21.90
2006,06,25,10,12,21.90
2006,06,25,10,13,22.00
2006,06,25,10,14,22.00
2006,06,25,10,15,22.10
2006,06,25,10,16,22.20
2006,06,25,10,17,22.20
2006,06,25,10,18,22.30
2006,06,25,10,19,22.30
2006,06,25,10,20,22.40
2006,06,25,10,21,22.40
2006,06,25,10,22,22.50
2006,06,25,10,23,22.50
2006,06,25,10,24,22.60
2006,06,25,10,25,22.60
2006,06,25,10,26,22.70
2006,06,25,10,27,22.80
2006,06,25,10,28,22.80
2006,06,25,10,29,22.80
2006,06,25,10,30,22.80
2006,06,25,10,31,22.80
2006,06,25,10,32,22.90
2006,06,25,10,33,22.90
2006,06,25,10,34,22.90
2006,06,25,10,35,22.80
2006,06,25,10,36,22.70
2006,06,25,10,37,22.70
2006,06,25,10,38,22.60
2006,06,25,10,39,22.60
2006,06,25,10,40,22.40
2006,06,25,10,41,22.30
2006,06,25,10,42,22.20
2006,06,25,10,43,22.20
2006,06,25,10,44,22.10
2006,06,25,10,45,22.10
2006,06,25,10,46,22.10
2006,06,25,10,47,22.20
2006,06,25,10,48,22.20
2006,06,25,10,49,22.20
2006,06,25,10,50,22.30
2006,06,25,10,51,22.40
2006,06,25,10,52,22.60
2006,06,25,10,53,22.70
2006,06,25,10,54,22.80
2006,06,25,10,55,22.90
2006,06,25,10,56,22.90
2006,06,25,10,57,22.90
2006,06,25,10,58,23.00
2006,06,25,10,59,23.10
2006,06,25,11,00,22.90
2006,06,25,11,01,22.90
2006,06,25,11,02,22.90
2006,06,25,11,03,22.90
2006,06,25,11,04,22.90
2006,06,25,11,05,22.90
2006,06,25,11,06,23.00
2006,06,25,11,07,23.10
2006,06,25,11,08,23.10
2006,06,25,11,09,23.10
2006,06,25,11,10,23.20
2006,06,25,11,11,23.20
2006,06,25,11,12,23.20
2006,06,25,11,13,23.10
2006,06,25,11,14,23.10
2006,06,25,11,15,23.10
2006,06,25,11,16,23.10
2006,06,25,11,17,23.10
2006,06,25,11,18,23.20
2006,06,25,11,19,23.20
2006,06,25,11,20,23.30
2006,06,25,11,21,23.30
2006,06,25,11,22,23.30
2006,06,25,11,23,23.40
2006,06,25,11,24,23.40
2006,06,25,11,25,23.30
2006,06,25,11,26,23.30
2006,06,25,11,27,23.30
2006,06,25,11,28,23.30
2006,06,25,11,29,23.30
2006,06,25,11,30,23.30
2006,06,25,11,31,23.40
2006,06,25,11,32,23.50
2006,06,25,11,33,23.60
2006,06,25,11,34,23.70
2006,06,25,11,35,23.70
2006,06,25,11,36,23.60
2006,06,25,11,37,23.40
2006,06,25,11,38,23.40
2006,06,25,11,39,23.40
2006,06,25,11,40,23.40
2006,06,25,11,41,23.50
2006,06,25,11,42,23.60
2006,06,25,11,43,23.60
2006,06,25,11,44,23.60
2006,06,25,11,45,23.70
2006,06,25,11,46,23.70
2006,06,25,11,47,23.70
2006,06,25,11,48,23.70
2006,06,25,11,49,23.70
2006,06,25,11,50,23.80
2006,06,25,11,51,23.90
2006,06,25,11,52,23.90
2006,06,25,11,53,24.00
2006,06,25,11,54,24.10
2006,06,25,11,55,24.10
2006,06,25,11,56,24.10
2006,06,25,11,57,24.10
2006,06,25,11,58,24.10
2006,06,25,11,59,24.10
2006,06,25,12,00,24.10
2006,06,25,12,01,24.10
2006,06,25,12,02,24.00
2006,06,25,12,03,23.80
2006,06,25,12,04,23.70
2006,06,25,12,05,23.70
2006,06,25,12,06,23.50
2006,06,25,12,07,23.40
2006,06,25,12,08,23.30
2006,06,25,12,09,23.30
2006,06,25,12,10,23.30
2006,06,25,12,11,23.30
2006,06,25,12,12,23.30
2006,06,25,12,13,23.30
2006,06,25,12,14,23.30
2006,06,25,12,15,23.30
2006,06,25,12,16,23.30
2006,06,25,12,17,23.30
2006,06,25,12,18,23.30
2006,06,25,12,19,23.30
2006,06,25,12,20,23.20
2006,06,25,12,21,23.20
2006,06,25,12,22,23.20
2006,06,25,12,23,23.20
2006,06,25,12,24,23.10
2006,06,25,12,25,23.10
2006,06,25,12,26,23.10
2006,06,25,12,27,23.20
2006,06,25,12,28,23.20
2006,06,25,12,29,23.20
2006,06,25,12,30,23.20
2006,06,25,12,31,23.30
2006,06,25,12,32,23.30
2006,06,25,12,33,23.30
2006,06,25,12,34,23.30
2006,06,25,12,35,23.30
2006,06,25,12,36,23.30
2006,06,25,12,37,23.30
2006,06,25,12,38,23.30
2006,06,25,12,39,23.30
2006,06,25,12,40,23.30
2006,06,25,12,41,23.40
2006,06,25,12,42,23.50
2006,06,25,12,43,23.60
2006,06,25,12,44,23.60
2006,06,25,12,45,23.70
2006,06,25,12,46,23.70
2006,06,25,12,47,23.70
2006,06,25,12,48,23.70
2006,06,25,12,49,23.70
2006,06,25,12,50,23.70
2006,06,25,12,51,23.80
2006,06,25,12,52,23.90
2006,06,25,12,53,23.90
2006,06,25,12,54,24.00
2006,06,25,12,55,24.10
2006,06,25,12,56,24.10
2006,06,25,12,57,24.10
2006,06,25,12,58,24.10
2006,06,25,12,59,24.10
2006,06,25,13,00,24.10
2006,06,25,13,01,24.10
2006,06,25,13,02,24.10
2006,06,25,13,03,24.20
2006,06,25,13,04,24.40
2006,06,25,13,05,24.40
2006,06,25,13,06,24.60
2006,06,25,13,07,24.70
2006,06,25,13,08,24.80
2006,06,25,13,09,24.80
2006,06,25,13,10,24.90
2006,06,25,13,11,24.90
2006,06,25,13,12,25.00
2006,06,25,13,13,25.10
2006,06,25,13,14,25.20
2006,06,25,13,15,25.20
2006,06,25,13,16,25.20
2006,06,25,13,17,25.30
2006,06,25,13,18,25.40
2006,06,25,13,19,25.40
2006,06,25,13,20,25.40
2006,06,25,13,21,25.40
2006,06,25,13,22,25.40
2006,06,25,13,23,25.40
2006,06,25,13,24,25.40
2006,06,25,13,25,25.40
2006,06,25,13,26,25.40
2006,06,25,13,27,25.40
2006,06,25,13,28,25.50
2006,06,25,13,29,25.50
2006,06,25,13,30,25.60
2006,06,25,13,31,25.60
2006,06,25,13,32,25.60
2006,06,25,13,33,25.70
2006,06,25,13,34,25.70
2006,06,25,13,35,25.80
2006,06,25,13,36,25.90
2006,06,25,13,37,25.90
2006,06,25,13,38,25.80
2006,06,25,13,39,25.80
2006,06,25,13,40,25.80
2006,06,25,13,41,25.80
2006,06,25,13,42,25.70
2006,06,25,13,43,25.60
2006,06,25,13,44,25.50
2006,06,25,13,45,25.40
2006,06,25,13,46,25.40
2006,06,25,13,47,25.30
2006,06,25,13,48,25.30
2006,06,25,13,49,25.30
2006,06,25,13,50,25.20
2006,06,25,13,51,25.20
2006,06,25,13,52,25.20
2006,06,25,13,53,25.20
2006,06,25,13,54,25.20
2006,06,25,13,55,25.20
2006,06,25,13,56,25.30
2006,06,25,13,57,25.40
2006,06,25,13,58,25.50
2006,06,25,13,59,25.40
2006,06,25,14,00,25.40
2006,06,25,14,01,25.40
2006,06,25,14,02,25.40
2006,06,25,14,03,25.30
2006,06,25,14,04,25.30
2006,06,25,14,05,25.30
2006,06,25,14,06,25.30
2006,06,25,14,07,25.30
2006,06,25,14,08,25.30
2006,06,25,14,09,25.30
2006,06,25,14,10,25.30
2006,06,25,14,11,25.40
2006,06,25,14,12,25.40
2006,06,25,14,13,25.30
2006,06,25,14,14,25.30
2006,06,25,14,15,25.30
2006,06,25,14,16,25.30
2006,06,25,14,17,25.30
2006,06,25,14,18,25.30
2006,06,25,14,19,25.40
2006,06,25,14,20,25.40
2006,06,25,14,21,25.40
2006,06,25,14,22,25.40
2006,06,25,14,23,25.50
2006,06,25,14,24,25.60
2006,06,25,14,25,25.70
2006,06,25,14,26,25.70
2006,06,25,14,27,25.80
2006,06,25,14,28,25.90
2006,06,25,14,29,25.90
2006,06,25,14,30,26.00
2006,06,25,14,31,26.00
2006,06,25,14,32,26.00
2006,06,25,14,33,26.10
2006,06,25,14,34,26.30
2006,06,25,14,35,26.40
2006,06,25,14,36,26.40
2006,06,25,14,37,26.40
2006,06,25,14,38,26.40
2006,06,25,14,39,26.30
2006,06,25,14,40,26.20
2006,06,25,14,41,26.10
2006,06,25,14,42,26.10
2006,06,25,14,43,26.00
2006,06,25,14,44,25.90
2006,06,25,14,45,25.90
2006,06,25,14,46,26.00
2006,06,25,14,47,26.10
2006,06,25,14,48,26.10
2006,06,25,14,49,26.10
2006,06,25,14,50,26.20
2006,06,25,14,51,26.30
2006,06,25,14,52,26.30
2006,06,25,14,53,26.30
2006,06,25,14,54,26.30
2006,06,25,14,55,26.40
2006,06,25,14,56,26.40
2006,06,25,14,57,26.30
2006,06,25,14,58,26.20
2006,06,25,14,59,26.20
2006,06,25,15,00,26.10
2006,06,25,15,01,26.10
2006,06,25,15,02,26.10
2006,06,25,15,03,26.10
2006,06,25,15,04,26.10
2006,06,25,15,05,26.10
2006,06,25,15,06,26.30
2006,06,25,15,07,26.30
2006,06,25,15,08,26.40
2006,06,25,15,09,26.50
2006,06,25,15,10,26.60
2006,06,25,15,11,26.60
2006,06,25,15,12,26.60
2006,06,25,15,13,26.60
2006,06,25,15,14,26.60
2006,06,25,15,15,26.60
2006,06,25,15,16,26.60
2006,06,25,15,17,26.60
2006,06,25,15,18,26.60
2006,06,25,15,19,26.60
2006,06,25,15,20,26.60
2006,06,25,15,21,26.60
2006,06,25,15,22,26.60
2006,06,25,15,23,26.60
2006,06,25,15,24,26.60
2006,06,25,15,25,26.60
2006,06,25,15,26,26.60
2006,06,25,15,27,26.70
2006,06,25,15,28,26.70
2006,06,25,15,29,26.80
2006,06,25,15,30,26.90
2006,06,25,15,31,26.90
2006,06,25,15,32,27.00
2006,06,25,15,33,26.90
2006,06,25,15,34,27.00
2006,06,25,15,35,27.10
2006,06,25,15,36,27.10
2006,06,25,15,37,27.20
2006,06,25,15,38,27.30
2006,06,25,15,39,27.30
2006,06,25,15,40,27.30
2006,06,25,15,41,27.30
2006,06,25,15,42,27.40
2006,06,25,15,43,27.40
2006,06,25,15,44,27.40
2006,06,25,15,45,27.40
2006,06,25,15,46,27.40
2006,06,25,15,47,27.40
2006,06,25,15,48,27.50
2006,06,25,15,49,27.60
2006,06,25,15,50,27.50
2006,06,25,15,51,27.40
2006,06,25,15,52,27.40
2006,06,25,15,53,27.30
2006,06,25,15,54,27.30
2006,06,25,15,55,27.30
2006,06,25,15,56,27.30
2006,06,25,15,57,27.30
2006,06,25,15,58,27.30
2006,06,25,15,59,27.30
2006,06,25,16,00,27.40
2006,06,25,16,01,27.40
2006,06,25,16,02,27.50
2006,06,25,16,03,27.60
2006,06,25,16,04,27.60
2006,06,25,16,05,27.70
2006,06,25,16,06,27.70
2006,06,25,16,07,27.80
2006,06,25,16,08,27.70
2006,06,25,16,09,27.60
2006,06,25,16,10,27.50
2006,06,25,16,11,27.40
2006,06,25,16,12,27.40
2006,06,25,16,13,27.40
2006,06,25,16,14,27.40
2006,06,25,16,15,27.50
2006,06,25,16,16,27.60
2006,06,25,16,17,27.60
2006,06,25,16,18,27.60
2006,06,25,16,19,27.70
2006,06,25,16,20,27.70
2006,06,25,16,21,27.70
2006,06,25,16,22,27.70
2006,06,25,16,23,27.80
2006,06,25,16,24,27.80
2006,06,25,16,25,27.80
2006,06,25,16,26,27.90
2006,06,25,16,27,28.00
2006,06,25,16,28,28.00
2006,06,25,16,29,28.10
2006,06,25,16,30,28.20
2006,06,25,16,31,28.30
2006,06,25,16,32,28.40
2006,06,25,16,33,28.40
2006,06,25,16,34,28.60
2006,06,25,16,35,28.60
2006,06,25,16,36,28.60
2006,06,25,16,37,28.50
2006,06,25,16,38,28.40
2006,06,25,16,39,28.40
2006,06,25,16,40,28.40
2006,06,25,16,41,28.40
2006,06,25,16,42,28.40
2006,06,25,16,43,28.40
2006,06,25,16,44,28.50
2006,06,25,16,45,28.60
2006,06,25,16,46,28.60
2006,06,25,16,47,28.60
2006,06,25,16,48,28.60
2006,06,25,16,49,28.50
2006,06,25,16,50,28.40
2006,06,25,16,51,28.40
2006,06,25,16,52,28.40
2006,06,25,16,53,28.30
2006,06,25,16,54,28.40
2006,06,25,16,55,28.40
2006,06,25,16,56,28.40
2006,06,25,16,57,28.40
2006,06,25,16,58,28.30
2006,06,25,16,59,28.30
2006,06,25,17,00,28.20
2006,06,25,17,01,28.10
2006,06,25,17,02,28.00
2006,06,25,17,03,28.00
2006,06,25,17,04,28.00
2006,06,25,17,05,28.00
2006,06,25,17,06,28.00
2006,06,25,17,07,28.00
2006,06,25,17,08,28.00
2006,06,25,17,09,28.00
2006,06,25,17,10,28.00
2006,06,25,17,11,28.00
2006,06,25,17,12,28.00
2006,06,25,17,13,28.00
2006,06,25,17,14,28.10
2006,06,25,17,15,28.10
2006,06,25,17,16,28.10
2006,06,25,17,17,28.10
2006,06,25,17,18,28.10
2006,06,25,17,19,28.00